User: anonymous
Location: Brno
(49.2000°N, 16.6330°E)
Time: 01:29:01
(UTC+02:00)
Language:

BREEZE M DEB (TANK) - Orbit

View from above orbital plane
View from above orbital plane
View from above satellite
View from above satellite

Ground track
Ground track

The orbit data is extracted from the following two-line orbital elements,

1 28359U 04022B   14110.45508443  .00010641  00000-0  13565-2 0  1700
2 28359 049.5160 109.3119 4724982 334.8713 161.7422 06.10053623214188
Epoch (UTC): 20 April 2014 10:55:19
Eccentricity: 0.4724982
inclination: 49.5160°
perigee height: 296 km
apogee height: 12251 km
right ascension of ascending node: 109.3119°
argument of perigee: 334.8713°
revolutions per day: 6.10053623
mean anomaly at epoch: 161.7422°
orbit number at epoch: 21418

The dashed part of the orbit path shows where the satellite is in the earth's shadow,  

DLR